Location: Unspecified
(38.7273°N, 77.0677°W)
Time: 07:14:04
(UTC-04:00)

CAS-4B - Pass Details

Date: 26 September 2021
Orbit: 529 x 541 km, 43.0° (Epoch: 20 October)

Event Time Altitude Azimuth Distance (km) Brightness Sun altitude
Exits shadow 05:57:09 16° 294° (WNW) 1,408 ? -13.0°
Maximum altitude 06:00:03 44° 2° (N) 738 ? -12.5°
Drops below altitude 10° 06:03:56 10° 75° (ENE) 1,770 ? -11.7°
Sets 06:06:15 0° 82° (E) 2,660 ? -11.3°
